www.pogodaiklimat.ru

Погода и климат >> Архив погоды >> Иран >> Abadan


ПОГОДА в Abadan

  • Прогноз погоды в Abadan
  • Монитор погоды в Abadan
  • Климат города

АРХИВ ПОГОДЫ в Abadan

Время (UTC), дата Ветер
(напр.,м/с)
 
Видим.   Явления Облачность Т
(С)
Тd
(С)
f
(%)
Тe
(С)
Тes
(С)
Комфортность P
(гПа)
Po
(гПа)
Тmin
(С)
Tmax
(С)
R
(мм)
R24
(мм)
S
(см)
09 11.08 СЗ 7 10 км ясно +45.1 +10.3 13 +44 +49 опасность
перегрева
1000.8 1000.1
12 11.08 З 7 10 км ясно +47.2 +8.0 10 +45 +48 опасность
перегрева
998.8 998.1
15 11.08 СЗ 7 10 км ясно +43.6 +11.3 15 +43 +43 опасность
перегрева
998.3 997.6 +47.5
18 11.08 СЗ 5 10 км ясно +37.5 +12.9 23 +37 +37 очень
жарко
999.7 999.0
21 11.08 З 3 10 км ясно +33.2 +10.5 25 +33 +33 жарко 999.8 999.8
00 12.08 З 3 10 км ясно +32.6 +11.7 28 +33 +33 жарко 999.5 998.7
03 12.08 З 2 6000 м мгла ясно +28.8 +10.0 31 +29 +30 жарко 999.6 998.8 +28.6
06 12.08 СЗ 7 10 км ясно +38.8 +11.8 20 +38 +42 очень
жарко
1000.7 999.9
09 12.08 СЗ 7 10 км ясно +45.1 +10.3 13 +44 +49 опасность
перегрева
999.3 998.6
12 12.08 СЗ 7 10 км ясно +48.3 +7.3 9 +46 +49 опасность
перегрева
997.3 996.6
15 12.08 З 6 10 км ясно +44.8 +12.2 15 +44 +44 опасность
перегрева
996.1 995.3 +48.4
18 12.08 СЗ 6 10 км ясно +38.0 +11.9 21 +37 +37 очень
жарко
997.0 996.2
21 12.08 СЗ 6 10 км ясно +34.7 +11.2 24 +34 +34 очень
жарко
996.4 995.7
00 13.08 СЗ 8 10 км ясно +33.5 +11.9 27 +34 +34 очень
жарко
995.0 994.3
03 13.08 СЗ 5 5000 м мгла ясно +31.6 +11.9 30 +32 +32 жарко 995.6 994.8 +31.6
06 13.08 СЗ 10 4000 м пыльный позёмок ясно +39.0 +9.5 17 +37 +38 очень
жарко
996.8 996.0
09 13.08 СЗ 9 6000 м пыль ясно +44.2 +10.7 14 +43 +45 опасность
перегрева
995.8 995.0
12 13.08 СЗ 13 7000 м пыльный позёмок ясно +45.8 +8.4 11 +44 +44 опасность
перегрева
994.0 993.2
15 13.08 З 7 8000 м пыльный позёмок ясно +42.2 +10.2 15 +41 +41 опасность
перегрева
993.9 993.1 +46.1
18 13.08 СЗ 5 10 км ясно +36.8 +10.9 21 +36 +36 очень
жарко
994.9 994.2
21 13.08 СЗ 4 10 км ясно +33.0 +12.1 28 +33 +33 жарко 995.5 994.7
00 14.08 З 5 10 км ясно +31.4 +11.2 29 +32 +32 жарко 994.8 994.1
03 14.08 ЮЗ 2 7000 м мгла ясно +27.9 +9.2 31 +28 +29 жарко 995.9 995.1 +27.7
06 14.08 З 6 7000 м пыль ясно +37.9 +9.5 18 +36 +41 очень
жарко
997.2 996.4
09 14.08 З 7 6000 м пыль ясно +43.3 +10.7 15 +42 +48 опасность
перегрева
997.0 996.3
12 14.08 З 7 10 км ясно +45.3 +8.0 11 +43 +46 опасность
перегрева
995.7 994.9
15 14.08 З 5 10 км ясно +42.3 +10.3 15 +41 +41 опасность
перегрева
995.9 995.1 +45.8
18 14.08 З 4 10 км ясно +36.6 +10.7 21 +36 +36 очень
жарко
997.5 996.7
21 14.08 З 2 10 км ясно +31.6 +8.6 24 +31 +31 жарко 997.7 997.0
00 15.08 З 2 10 км ясно +28.7 +7.9 27 +28 +28 жарко 997.6 996.9
03 15.08 З 3 10 км ясно +28.4 +7.1 26 +28 +28 жарко 998.5 997.7 +27.6
06 15.08 З 3 7000 м пыль ясно +36.5 +10.7 21 +36 +46 очень
жарко
999.8 999.0
09 15.08 СЗ 5 10 км ясно +43.0 +7.5 12 +41 +51 опасность
перегрева
999.2 998.4
12 15.08 СЗ 5 10 км ясно +44.9 +6.3 10 +42 +48 опасность
перегрева
998.2 997.4
15 15.08 СЗ 4 10 км ясно +42.9 +8.6 13 +41 +41 опасность
перегрева
997.8 997.1 +45.1
18 15.08 З 2 10 км ясно +35.4 +8.3 19 +34 +34 очень
жарко
998.6 997.8
21 15.08 ЮЗ 1 10 км ясно +30.1 +5.7 21 +28 +28 жарко 998.8 998.0
00 16.08 З 2 10 км ясно +28.4 +8.2 28 +28 +28 жарко 998.5 997.8
03 16.08 З 1 6000 м мгла ясно +27.3 +10.9 36 +28 +29 жарко 999.4 998.7 +27.3
06 16.08 СЗ 3 6000 м пыль ясно +36.9 +11.7 22 +36 +46 очень
жарко
1000.7 1000.0
09 16.08 СЗ 4 10 км ясно +44.6 +4.6 9 +42 +55 опасность
перегрева
1000.4 999.7
12 16.08 СЗ 4 10 км ясно +47.0 +7.3 10 +45 +52 опасность
перегрева
998.9 998.1
15 16.08 СЗ 4 10 км ясно +43.5 +10.2 14 +42 +42 опасность
перегрева
998.4 997.6 +46.4
18 16.08 З 2 10 км ясно +35.9 +10.2 21 +35 +35 очень
жарко
998.8 998.0
21 16.08 ЮЗ 2 10 км ясно +32.2 +9.7 25 +32 +32 жарко 998.7 998.0
00 17.08 З 2 10 км ясно +29.6 +9.2 28 +29 +29 жарко 998.5 997.8
03 17.08 З 3 10 км ясно +30.4 +10.9 30 +31 +31 жарко 999.6 998.8 +29.2
06 17.08 СЗ 7 7000 м пыль ясно +39.7 +7.2 14 +37 +41 очень
жарко
1000.7 999.9
09 17.08 СЗ 7 10 км ясно +46.3 +9.6 12 +45 +50 опасность
перегрева
1000.0 999.3
12 17.08 СЗ 7 10 км ясно +47.4 +8.2 10 +45 +48 опасность
перегрева
997.9 997.1
15 17.08 З 5 10 км ясно +44.3 +8.5 12 +42 +42 опасность
перегрева
997.1 996.4 +48.0
18 17.08 З 4 10 км ясно +36.2 +7.3 17 +34 +34 очень
жарко
997.4 996.6
21 17.08 З 3 10 км ясно +33.3 +10.6 25 +33 +33 жарко 996.9 996.1
00 18.08 З 2 10 км ясно +29.1 +8.7 28 +29 +29 жарко 996.6 995.9
03 18.08 З 4 10 км ясно +28.5 +8.2 28 +28 +28 жарко 997.5 996.8 +28.0

 

Местоположение метеостанции Abadan (Иран): широта 30.37 долгота 48.25 высота над уровнем моря 6 м.

В архиве по умолчанию представлена погода в Abadan за последнюю неделю. Архивные данные за месяц целиком и за предыдущие месяцы, начиная с января 2011 года, Вы можете получить, выбрав интересующий диапазон дат из раскрывающегося списка и нажав кнопку "Ввод!".


*Определитесь, кто Вы:
робот инопланетянин человек

Внимание! Время в таблицах - всемирное. Для получения местного времени необходимо прибавить поправку, которая в Abadan равна 3.5 ч.

Смотрите также архив погоды в соседних городах и на ближайших метеорологических станциях:

Погода в Basrah Airport (Ирак) (48 км)
Погода в Fao (Ирак) (50 км)
Погода в Basrah (Ирак) (50 км)
Погода в Abdaly (Кувейт) (62 км)
Погода в Bubiyan (Кувейт) (68 км)
Погода в Sabriyah (Кувейт) (79 км)
Погода в Failaka Island (Кувейт) (100 км)
Погода в Mitribah (Кувейт) (104 км)
Погода в Jal Aliyah (Кувейт) (106 км)
Погода в Ahwaz (Иран) (114 км)

Пояснения к столбцам:

Ветер - указаны скорость ветра в м/с - средняя за 10 мин, порывы в срок и между сроками (в фигурных скобках) и направление, откуда дует ветер: С - северный, СВ - северо-восточный, В - восточный, ЮВ - юго-восточный, Ю - южный, ЮЗ - юго-западный, З - западный, СЗ - северо-западный.
Видимость - горизонтальная дальность видимости в метрах или километрах. При видимости от 1 до 10 км при отсутствии осадков обычно наблюдается дымка, при ухудшении видимости до 1 км и менее - туман. В сухую погоду видимость может ухудшаться дымом, пылью или мглою.
Явления - указаны атмосферные явления, наблюдавшиеся в срок или в последний час перед сроком; фигурными скобками обозначены явления, наблюдавшиеся между сроками (за 1-3 часа до срока); квадратными скобками обозначены град или гололедные отложения с указанием их диаметра в мм.
Облачность - указаны через наклонную черту общая и нижняя облачность в баллах и высота нижней границы облаков в метрах; квадратными скобками обозначены формы облаков: Ci - перистые, Cs - перисто-слоистые, Cc - перисто-кучевые, Ac - высококучевые, As - высокослоистые, Sc - слоисто-кучевые, Ns - слоисто-дождевые, Cu - кучевые, Cb - кучево-дождевые. Подробнее классификацию облаков см. в Атласе облаков (PDF).
T - Температура воздуха - температура, измеренная на высоте 2 м над землей.
Td - Температура точки росы - температура, при понижении до которой содержащийся в воздухе водяной пар достигнет насыщения.
f - Относительная влажность воздуха - влажноcть воздуха, измеренная на высоте 2 м над землей.
Te - Эффективная температура - температура, которую ощущает одетый по сезону человек в тени. Характеристика душности погоды. При расчете учитывается влияние влажности воздуха и скорости ветра на теплоощущения человека.
Tes - Эффективная температура на солнце - температура, которую ощущает человек, с поправкой на солнечный нагрев. Характеристика знойности погоды. Зависит от высоты солнца над горизонтом, облачности и скорости ветра. Ночью, в пасмурную погоду, а также при ветре 12 м/с и более поправка равна нулю.
P - Атмосферное давление - приведенное к уровню моря атмосферное давление.
Po - Атмосферное давление - измеренное на уровне метеостанции атмосферное давление.
Tmin - Минимальная температура - минимум температуры воздуха на высоте 2 м над землей.
Tmax - Максимальная температура - максимум температуры воздуха на высоте 2 м над землей.
R - Количество осадков - Количество выпавших осадков за период времени, мм. При наведении курсора мыши на число - период времени, за который выпало указанное количество осадков.
R24 - Количество осадков - Количество выпавших осадков за 24 часа, мм.
S - Снежный покров - Высота снежного покрова, см. При наведении курсора мыши на число - состояние снежного покрова и степень покрытия местности в баллах.